Regional Weather Roundup
Issued by NWS Sioux Falls, SD

Home | Current Version | Previous Version | Text Only | Print | Product List | Glossary On
Versions: 1 2 3 4 5 6 7 8 9 10 11 12 13 14 15 16 17 18 19 20 21 22 23 24 25 26 27 28 29 30 31 32 33 34 35 36 37 38 39 40 41 42 43 44 45 46 47 48 49 50
000
ASUS43 KFSD 080010
RWRFSD

WEATHER ROUNDUP FOR SE SOUTH DAKOTA/SW MINNESOTA/NW IOWA
NATIONAL WEATHER SERVICE SIOUX FALLS SD
600 PM CST SUN FEB 07 2016

NOTE: "FAIR" INDICATES FEW OR NO CLOUDS BELOW 12,000 FEET WITH NO
SIGNIFICANT WEATHER AND OR OBSTRUCTIONS TO VISIBILITY.


SDZ038>040-050-052>070-080100-
SOUTHEAST SOUTH DAKOTA

CITY           SKY/WX    TMP DP  RH WIND       PRES   REMARKS
BROOKINGS      FLURRIES  25  19  78 NW29G37   29.87R WCI   8
CHAMBERLAIN    CLOUDY    34  20  57 NW29G40   30.05R WCI  20
6HR MIN TEMP:  32; 6HR MAX TEMP:  36;

HURON          LGT SNOW  29  27  92 N23G32    29.98R FOG     WCI  15
6HR MIN TEMP:  29; 6HR MAX TEMP:  35; 6HR PCP: TRACE;

MADISON        LGT RAIN  25  23  93 N35G43    29.91R WCI   7
MITCHELL       FLURRIES  33  27  78 NW31G41   30.00R WCI  19
6HR MIN TEMP:  32; 6HR MAX TEMP:  36; 6HR PCP: TRACE;

SIOUX FALLS    CLOUDY    29  20  69 NW29G39   29.92R WCI  14
6HR MIN TEMP:  29; 6HR MAX TEMP:  36; 6HR PCP: TRACE;

WINNER         MOCLDY    36  19  50 NW29G36   30.10R
YANKTON        CLOUDY    34  25  69 NW26G32   29.99R WCI  21
$$

MNZ071-072-080-081-089-090-097-098-080100-
SOUTHWEST MINNESOTA

CITY           SKY/WX    TMP DP  RH WIND       PRES   REMARKS
FAIRMONT       CLOUDY    34  27  75 NW24G39   29.77R WCI  21
JACKSON        LGT SNOW  32  27  80 NW38      29.80R WCI  16
LUVERNE        CLOUDY    32  23  69 NW23G36   29.88R WCI  19
MARSHALL       FLURRIES  28  22  78 NW31G43   29.83R WCI  12
6HR MIN TEMP:  28; 6HR MAX TEMP:  36; 6HR PCP: TRACE;

MONTEVIDEO     CLOUDY    27  23  86 N18G29    29.85R WCI  13
PIPESTONE      FLURRIES  28  18  64 N21G28    29.86R WCI  15
REDWOOD FALLS  CLOUDY    29  23  78 NW18G28   29.81R WCI  16
TRACY          LGT SNOW  30  25  80 NW25G33   29.83R WCI  16
WINDOM         MIX PCPN  30  27  86 NW32      29.79R WCI  15
WORTHINGTON    CLOUDY    28  23  80 NW28G36   29.84R WCI  13
$$

IAZ001>003-012>014-020>022-031-032-NEZ013-014-SDZ071-080100-
NORTHWEST IOWA

CITY           SKY/WX    TMP DP  RH WIND       PRES   REMARKS
CHEROKEE       FLURRIES  32  28  84 NW20G32   29.88R WCI  20
DENISON        CLOUDY    34  30  86 NW22      29.88R WCI  22
ESTHERVILLE    CLOUDY    32  28  85 NW32G38   29.81R WCI  17
LE MARS        CLOUDY    34  27  75 NW25G38   29.93R WCI  21
ORANGE CITY    CLOUDY    30  25  80 NW25G37   29.89R WCI  16
SHELDON        FLURRIES  30  27  86 NW32G40   29.86R WCI  15
SIOUX CITY     FLURRIES  35  26  69 NW25G40   29.94R WCI  23
6HR MIN TEMP:  35; 6HR MAX TEMP:  43; 6HR PCP: TRACE;

SPENCER        LGT SNOW  31  27  85 NW24G35   29.84R FOG     WCI  17
6HR MIN TEMP:  31; 6HR MAX TEMP:  38; 6HR PCP: TRACE;

STORM LAKE     LGT SNOW  32  32 100 NW26      29.85R WCI  18
$$

ABBREVIATIONS USED IN REMARKS
   TC - TEMPERATURE IN CELSIUS
  WCI - WIND CHILL INDEX
   HX - HEAT INDEX
  VSB - VISIBILITY




USA.gov is the U.S. government's official web portal to all federal, state and local government web resources and services.